Starlink 4778

operational
NORAD ID: 53836 Int'l Des: 2022-114 Owner: SPXS Country: US Constellation: starlink
LEOCIRCULAR

About Starlink 4778

Description loading...

Live Position

Loading 3D Globe...

Upcoming Passes

Altitude History

Altitude vs Time

uPlot chart will show altitude changes over time

Two-Line Element Set

1 53836U 22114U 25302.89839023 -.00000730 00000-0 -27778-4 0 9996
2 53836 53.2150 161.4692 0001343 89.9633 270.1513 15.08838834173223
Epoch: Oct 29, 2025 • Age: 43 hours

Current Status

Altitude 539.7 km
Velocity 7.60 km/s
Sub-Earth Point 16.47°N, 122.75°W
Launch Date Sep 19, 2022
Age 3.1 years
Type internet

Technical Details

Classification Payload
Mass 305.00 kg
Dry Mass 290.00 kg
Total Mass 305.00 kg
Length 0.20 m
Diameter 2.80 m
Span 9.00 m
Shape Box + pan
Manufacturer SPXS
Bus Type Starlink
Phase Status In Orbit
Owner/State SPXS/US

Large Constellations

Loading constellations...